VK6CV Weather Reports


Display with metric or nautical units.
time (UTC)temp
F
wind
direction
speed
MPH
gust
MPH
rain 1hr
in
rain 24hr
in
rain mn
in
humidity
%
barometer
mb
20260504233552 55 84 4.0 11.0 0.00 0.00 0.00 79 1025.8
20260504233050 54 74 3.0 7.0 0.00 0.00 0.00 80 1025.7
20260504232553 54 77 3.0 7.0 0.00 0.00 0.00 81 1025.8
20260504232051 54 63 2.0 7.0 0.00 0.00 0.00 82 1025.7
20260504231620 53 142 3.0 5.0 0.00 0.00 0.00 83 1025.7
20260504231052 53 141 1.0 5.0 0.00 0.00 0.00 84 1025.7
20260504230552 52 141 1.0 5.0 0.00 0.00 0.00 84 1025.6
20260504230052 52 0 0.0 3.0 0.00 0.00 0.00 84 1025.5
20260504225552 52 141 1.0 3.0 0.00 0.00 0.00 84 1025.5
20260504225054 52 0 0.0 2.0 0.00 0.00 0.00 84 1025.3
20260504224553 52 141 0.0 1.0 0.00 0.00 0.00 84 1025.3
20260504224052 52 0 0.0 1.0 0.00 0.00 0.00 84 1025.2
20260504223552 52 0 0.0 2.0 0.00 0.00 0.00 84 1025.1
20260504223050 52 0 0.0 2.0 0.00 0.00 0.00 84 1025.0
20260504222552 52 141 0.0 1.0 0.00 0.00 0.00 84 1024.9
20260504222051 52 0 0.0 1.0 0.00 0.00 0.00 84 1025.0
20260504221631 52 0 0.0 1.0 0.00 0.00 0.00 84 1024.9
20260504221051 52 0 0.0 1.0 0.00 0.00 0.00 85 1024.9
20260504220552 52 0 0.0 1.0 0.00 0.00 0.00 85 1024.9
20260504220055 52 0 0.0 1.0 0.00 0.00 0.00 85 1024.9
20260504215552 52 0 0.0 1.0 0.00 0.00 0.00 84 1024.8
20260504215052 52 0 0.0 2.0 0.00 0.00 0.00 84 1024.8
20260504214551 52 0 0.0 2.0 0.00 0.00 0.00 84 1024.8
20260504214052 52 0 0.0 2.0 0.00 0.00 0.00 84 1024.7
20260504213552 52 0 0.0 2.0 0.00 0.00 0.00 84 1024.7
20260504213059 52 141 0.0 1.0 0.00 0.00 0.00 84 1024.6
20260504212552 52 0 0.0 2.0 0.00 0.00 0.00 84 1024.6
20260504212051 52 0 0.0 2.0 0.00 0.00 0.00 84 1024.6
20260504211553 52 141 0.0 2.0 0.00 0.00 0.00 84 1024.7
20260504211052 52 0 0.0 1.0 0.00 0.00 0.00 84 1024.8
20260504210552 52 0 0.0 2.0 0.00 0.00 0.00 84 1024.8
20260504210052 52 0 0.0 2.0 0.00 0.00 0.00 84 1024.8
20260504205551 52 141 0.0 1.0 0.00 0.00 0.00 83 1024.8
20260504205051 52 0 0.0 2.0 0.00 0.00 0.00 84 1024.9
20260504204555 52 0 0.0 2.0 0.00 0.00 0.00 84 1024.9
20260504204052 52 0 0.0 2.0 0.00 0.00 0.00 83 1024.9
20260504203554 52 0 0.0 2.0 0.00 0.00 0.00 83 1024.8
20260504203054 52 0 0.0 3.0 0.00 0.00 0.00 83 1024.9
20260504202551 52 141 1.0 3.0 0.00 0.00 0.00 83 1025.0
20260504202052 52 141 0.0 2.0 0.00 0.00 0.00 83 1024.9
20260504201554 52 141 1.0 2.0 0.00 0.00 0.00 83 1024.8
20260504201052 52 0 0.0 2.0 0.00 0.00 0.00 83 1024.8
20260504200552 52 0 1.0 2.0 0.00 0.00 0.00 84 1024.8
20260504200053 52 0 0.0 1.0 0.00 0.00 0.00 83 1024.8
20260504195551 52 0 0.0 1.0 0.00 0.00 0.00 83 1024.8
20260504195053 52 0 0.0 1.0 0.00 0.00 0.00 82 1024.9
20260504194601 53 0 0.0 1.0 0.00 0.00 0.00 82 1024.9
20260504194052 53 0 0.0 0.0 0.00 0.00 0.00 83 1024.8
20260504193552 53 0 0.0 0.0 0.00 0.00 0.00 82 1024.9
20260504193051 53 0 0.0 0.0 0.00 0.00 0.00 82 1025.0
20260504192551 53 0 0.0 2.0 0.00 0.00 0.00 82 1025.0
20260504192052 53 0 0.0 2.0 0.00 0.00 0.00 82 1025.0
20260504191615 53 0 0.0 2.0 0.00 0.00 0.00 82 1025.0
20260504191052 53 0 0.0 0.0 0.00 0.00 0.00 81 1025.0
20260504190552 53 0 0.0 0.0 0.00 0.00 0.00 80 1025.1
20260504190058 53 0 0.0 1.0 0.00 0.00 0.00 80 1025.0
20260504185552 53 0 0.0 1.0 0.00 0.00 0.00 80 1025.1
20260504185052 54 0 0.0 0.0 0.00 0.00 0.00 80 1025.1
20260504184602 54 0 0.0 1.0 0.00 0.00 0.00 80 1025.0
20260504184052 54 0 0.0 1.0 0.00 0.00 0.00 80 1025.1
20260504183552 54 0 0.0 1.0 0.00 0.00 0.00 80 1025.0
20260504183051 54 0 0.0 1.0 0.00 0.00 0.00 79 1025.1
20260504182557 54 0 0.0 1.0 0.00 0.00 0.00 79 1025.2
20260504182051 54 0 0.0 2.0 0.00 0.00 0.00 79 1025.2
20260504181551 55 0 0.0 2.0 0.00 0.00 0.00 78 1025.1
20260504181052 55 141 0.0 2.0 0.00 0.00 0.00 77 1025.3
20260504180552 55 0 0.0 1.0 0.00 0.00 0.00 77 1025.3
20260504180053 56 0 0.0 4.0 0.00 0.00 0.00 77 1025.3
20260504175552 56 0 0.0 4.0 0.00 0.00 0.00 77 1025.3
20260504175053 56 0 1.0 4.0 0.00 0.00 0.00 77 1025.3
20260504174552 56 141 1.0 4.0 0.00 0.00 0.00 77 1025.3
20260504174052 56 0 0.0 3.0 0.00 0.00 0.00 77 1025.2
20260504173556 56 141 0.0 3.0 0.00 0.00 0.00 77 1025.3
20260504173052 56 141 0.0 3.0 0.00 0.00 0.00 77 1025.2
20260504172551 56 0 0.0 2.0 0.00 0.00 0.00 76 1025.3
20260504172056 56 0 0.0 3.0 0.00 0.00 0.00 76 1025.2
20260504171552 56 0 0.0 3.0 0.00 0.00 0.00 76 1025.2
20260504171052 56 0 0.0 3.0 0.00 0.00 0.00 76 1025.2
20260504170551 56 0 0.0 3.0 0.00 0.00 0.00 76 1025.3
20260504151051 58 157 3.0 9.0 0.00 0.00 0.00 72 1025.6
20260504150552 58 157 3.0 9.0 0.00 0.00 0.00 72 1025.8
20260504141056 58 188 0.0 4.0 0.00 0.00 0.00 74 1025.9
20260504140552 58 188 0.0 4.0 0.00 0.00 0.00 74 1025.9
20260504140104 59 0 0.0 3.0 0.00 0.00 0.00 73 1026.0
20260504130552 60 190 1.0 4.0 0.00 0.00 0.00 73 1025.5
20260504110551 62 194 0.0 3.0 0.00 0.00 0.00 74 1025.9
20260504100551 64 212 1.0 5.0 0.00 0.00 0.00 69 1025.1
20260504081555 71 195 1.0 7.0 0.00 0.00 0.00 57 1024.6
20260504081053 71 259 2.0 8.0 0.00 0.00 0.00 57 1024.6
20260504080551 71 232 3.0 8.0 0.00 0.00 0.00 56 1024.7
20260504060106 72 352 1.0 4.0 0.00 0.00 0.00 50 1024.7
20260504050552 69 89 2.0 6.0 0.00 0.00 0.00 54 1025.3
20260504045551 69 101 1.0 6.0 0.00 0.00 0.00 54 1025.7
20260504045051 70 123 2.0 6.0 0.00 0.00 0.00 54 1025.6
20260504044555 69 126 0.0 3.0 0.00 0.00 0.00 57 1025.5
20260504044052 69 0 0.0 7.0 0.00 0.00 0.00 57 1025.7
20260504043552 68 126 1.0 7.0 0.00 0.00 0.00 57 1025.9
20260504043057 68 126 2.0 7.0 0.00 0.00 0.00 57 1026.1
20260504042554 68 174 1.0 7.0 0.00 0.00 0.00 57 1026.1
20260504042056 68 53 3.0 7.0 0.00 0.00 0.00 57 1026.2
20260504041552 68 88 1.0 4.0 0.00 0.00 0.00 58 1026.2
20260504041051 68 0 1.0 4.0 0.00 0.00 0.00 60 1026.2
20260504040553 67 101 1.0 6.0 0.00 0.00 0.00 60 1026.5
20260504040053 67 101 2.0 9.0 0.00 0.00 0.00 60 1026.5
20260504035550 67 101 4.0 9.0 0.00 0.00 0.00 59 1026.7
20260504035055 67 114 2.0 7.0 0.00 0.00 0.00 60 1026.7
20260504034556 67 121 1.0 8.0 0.00 0.00 0.00 61 1026.6
20260504034052 66 120 2.0 8.0 0.00 0.00 0.00 61 1026.8
20260504033552 66 119 3.0 8.0 0.00 0.00 0.00 62 1026.9
20260504033057 66 128 1.0 5.0 0.00 0.00 0.00 62 1027.0
20260504032552 66 129 3.0 7.0 0.00 0.00 0.00 62 1027.1
20260504032052 66 130 3.0 8.0 0.00 0.00 0.00 62 1027.1
20260504031605 65 111 2.0 9.0 0.00 0.00 0.00 63 1027.1
20260504031051 65 125 4.0 9.0 0.00 0.00 0.00 63 1027.1
20260504030551 65 343 2.0 8.0 0.00 0.00 0.00 64 1027.1
20260504030112 65 360 3.0 6.0 0.00 0.00 0.00 63 1027.3
20260504025552 64 19 3.0 8.0 0.00 0.00 0.00 64 1027.3
20260504025052 64 96 3.0 8.0 0.00 0.00 0.00 64 1027.4
20260504024552 64 101 3.0 8.0 0.00 0.00 0.00 65 1027.5
20260504024051 64 49 3.0 8.0 0.00 0.00 0.00 66 1027.7
20260504023551 63 53 3.0 10.0 0.00 0.00 0.00 66 1027.5
20260504023055 63 40 4.0 10.0 0.00 0.00 0.00 67 1027.6
20260504022550 62 345 4.0 10.0 0.00 0.00 0.00 67 1027.5
20260504022054 62 30 3.0 8.0 0.00 0.00 0.00 67 1027.5
20260504021605 62 63 4.0 8.0 0.00 0.00 0.00 68 1027.6
20260504021054 62 59 3.0 8.0 0.00 0.00 0.00 68 1027.5
20260504020552 62 99 4.0 9.0 0.00 0.00 0.00 68 1027.6
20260504020052 62 51 3.0 9.0 0.00 0.00 0.00 69 1027.5
20260504015552 61 50 4.0 10.0 0.00 0.00 0.00 70 1027.6
20260504015051 61 111 3.0 11.0 0.00 0.00 0.00 71 1027.6
20260504014553 60 76 5.0 11.0 0.00 0.00 0.00 70 1027.6
20260504014052 60 82 4.0 9.0 0.00 0.00 0.00 71 1027.5
20260504013552 60 74 4.0 9.0 0.00 0.00 0.00 71 1027.6
20260504013053 60 68 3.0 9.0 0.00 0.00 0.00 72 1027.6
20260504012550 60 12 5.0 10.0 0.00 0.00 0.00 73 1027.7
20260504012053 59 44 4.0 10.0 0.00 0.00 0.00 73 1027.7
20260504011555 60 74 4.0 11.0 0.00 0.00 0.00 72 1027.7
20260504011052 59 57 5.0 11.0 0.00 0.00 0.00 73 1027.8
20260504010552 59 50 4.0 9.0 0.00 0.00 0.00 74 1027.7
20260504010054 59 59 4.0 10.0 0.00 0.00 0.00 74 1027.8
20260504005551 59 33 3.0 10.0 0.00 0.00 0.00 75 1027.7
20260504005052 59 65 3.0 8.0 0.00 0.00 0.00 76 1027.6
20260504004555 58 85 3.0 8.0 0.00 0.00 0.00 76 1027.7
20260504004052 58 38 3.0 7.0 0.00 0.00 0.00 77 1027.6
20260504003551 58 44 3.0 7.0 0.00 0.00 0.00 77 1027.7
20260504003057 58 58 3.0 7.0 0.00 0.00 0.00 78 1027.5
20260504002552 58 49 2.0 6.0 0.00 0.00 0.00 78 1027.6
20260504002052 57 248 2.0 4.0 0.00 0.00 0.00 79 1027.6
20260504001557 57 248 2.0 4.0 0.00 0.00 0.00 79 1027.6
20260504001052 57 248 2.0 4.0 0.00 0.00 0.00 80 1027.7
20260504000551 56 248 0.0 4.0 0.00 0.00 0.00 81 1027.6
20260504000134 56 248 1.0 4.0 0.00 0.00 0.00 82 1027.6
20260503235552 55 248 1.0 5.0 0.00 0.00 0.00 83 1027.5
20260503235051 55 247 1.0 5.0 0.00 0.00 0.00 84 1027.4
20260503234552 54 247 1.0 4.0 0.00 0.00 0.00 84 1027.3
20260503234051 54 247 1.0 4.0 0.00 0.00 0.00 85 1027.2